Starlink 34622

operational
NORAD ID: 66015 Int'l Des: 2025-232 Owner: SPXS Country: US Constellation: starlink
LEOCIRCULAR

About Starlink 34622

Description loading...

Live Position

Loading 3D Globe...

Upcoming Passes

Altitude History

Altitude vs Time

uPlot chart will show altitude changes over time

Two-Line Element Set

1 66015C 25232L 25290.41506944 .00978850 00000+0 13560-2 0 2900
2 66015 53.1576 58.8970 0008580 286.1235 230.3311 16.04237017 17
Epoch: Oct 17, 2025 • Age: 61 hours

Current Status

Altitude 256.9 km
Velocity 7.75 km/s
Sub-Earth Point 32.09°N, 18.02°W
Launch Date Oct 16, 2025
Age 3 days
Type internet

Technical Details

Classification Payload
Mass 575.00 kg
Dry Mass 530.00 kg
Total Mass 575.00 kg
Length 0.30 m
Diameter 4.10 m
Span 29.00 m
Shape Box + pan
Manufacturer SPXS
Bus Type Starlink V2MO
Phase Status In Orbit
Owner/State SPXS/US

Large Constellations

Loading constellations...